Погода в Мане

Кот-д’Ивуар     7°24′20″N   7°33′13″W
темп.,
°C
ветер,
м/с
пор.,
м/с
влажн.,
%
обл.,
%
осадки,
мм/ч
давл.,
гПа
погр.,
м
1 марта, пн
пн100:00+22зюз118592 0.1 101126
03:00+21зюз118962 0.1 100826
06:00+20зсз119479 0.1 100929
09:00+22з118777 0.0 101182
12:00+24зюз017788 0.0 1010257
15:00+33ю134372 0.0 10071507
18:00+28зсз015763 0.0 100744
21:00+22з119195 2.6 101032
2 марта, вт
вт200:00+22юз118998 2.6 101024
03:00+20зюз119367 0.0 100928
06:00+20зюз119734 0.0 100923
09:00+25юз12782 0.0 1011339
12:00+33ю224520 0.0 10101401
15:00+34юв353843 0.0 10062474
18:00+31юв245034 0.0 1007239
21:00+24юз127710 0.1 101034
3 марта, ср
ср300:00+22ююз128925 0.1 101086
03:00+22юз239547 0.0 1009164
06:00+22юз129866 0.0 1010109
09:00+25юз237982 0.1 1012544
12:00+31юз225377 0.1 10111048
15:00+32ююз32495 0.6 10081495
18:00+24зюз128838 7.3 100880
21:00+21з1287100 0.6 101023
4 марта, чт
чт400:00+20з1290100 0.7 101135
03:00+21зюз1298100 0.0 100973
06:00+21зюз129995 0.0 100993
09:00+25зюз128262 0.0 1011348
12:00+33ююз224766 0.0 10101230
15:00+28ююз246831 2.3 1007588
18:00+22зсз239258 16.9 1007130
21:00+21сз1294100 3.8 101033
5 марта, пт
пт500:00+21зюз1189100 3.9 101023
03:00+21юз1298100 0.1 1008101
06:00+21з1310086 0.1 1009103
09:00+23юз128871 0.0 1011346
12:00+30юз225665 0.0 1010908
15:00+32юз33500 0.3 10061442
18:00+28ююз266629 1.1 1007677
21:00+22з1294100 4.0 101040